2017 WE28
ephemeris date magn radius delta ra dec elong phase
Today18 Oct 202528.90.896 AU1.454 AU15h56m-23°16'37.3°42.4°
2017 WE28 - 2025-10-18
astro.vanbuitenen.nl


 
-1 year
-1 month
-1 day
Now
+1 day
+1 month
+1 year

The interactive orbit chart above shows the body's path through the solar system and its position at the given date. Green and blue lines are shown perpendicular to the ecliptic plane: Green if the path is above the ecliptic plane, blue if it is below. (Left-click and drag to rotate the view; Right-click and drag to move the view; Use scroll wheel to zoom in our out.)

The orbital elements of 2017 WE28 are:

            e (Eccentricity)                : 0.2670467
            a (Semimajor axis)              : 1.1096643
            i (Inclination)                 : 6.71346
            Ω (Longitude of ascending node) : 61.13706
            ω (Argument of perihelion)      : 279.19011
            M (Mean anomaly)                : 186.68539
            Epoch                           : 2025 May 05

            L (Longitude of perihelion)     : -19.61047
            B (Latitude of perihelion)      : -6.62690
            P (Orbital period in years)     : 1.17            
        

The light curve chart below shows the estimated development of the minor planet's magnitude.


The all-sky chart below shows the path of the minor planet over the same period as the light curve. The current position is marked yellow.





The following chart shows the path of the minor planet in the next few days. The field of view is optimized for (~10x50) binoculars and finderscopes.




Ephemerides:
Date       Time       RA (2000)    DEC (2000)    delta   radius  elong  phase   PA    magn
2025-10-18 00:00 UT   15 56 07.4   -23 16 58     1.454    0.896   37.3   42.4   106   28.9 
2025-10-18 03:39 UT   15 56 46.2   -23 19 26     1.454    0.896   37.3   42.4   106   28.9 
2025-10-19 00:00 UT   16 00 23.3   -23 33 00     1.449    0.893   37.4   42.6   105   28.9 
2025-10-20 00:00 UT   16 04 41.5   -23 48 41     1.443    0.889   37.4   42.9   105   28.9 
2025-10-21 00:00 UT   16 09 02.1   -24 03 58     1.437    0.885   37.4   43.1   105   28.9 
2025-10-22 00:00 UT   16 13 25.1   -24 18 53     1.431    0.882   37.5   43.3   104   28.9 
2025-10-23 00:00 UT   16 17 50.5   -24 33 24     1.425    0.878   37.5   43.6   104   28.9 
2025-10-24 00:00 UT   16 22 18.3   -24 47 29     1.420    0.875   37.6   43.9   104   28.9 
2025-10-25 00:00 UT   16 26 48.4   -25 01 08     1.414    0.872   37.6   44.1   103   28.8 
2025-10-26 00:00 UT   16 31 20.9   -25 14 21     1.408    0.868   37.7   44.4   103   28.8 


    Terminology:
            
    delta:  distance between minor planet and earth in AU
    radius: distance between minor planet and sun in AU
    magn:   magnitude (brightness) estimate    
    ra:     right ascension in hours (24h = 360deg)
    dec:    declination in degrees
    elong:  elongation in degrees (angle sun-earth-minor planet)    
    phase:  phase angle in degrees (angle sun-minor planet-earth)        
    AU:     Astronomical Unit (mean distance between earth and sun: 149597870.7 km
    

Orbital elements provided by the MPC (Minor Planet Center).
Calculations by a modified version of AAPlus, a C# implementation of the AA+ project by PJ Naughter from the algorithms presented in the book "Astronomical Algorithms" by Jean Meeus.
NGC2000 dso catalog and star labels from VizieR as provided by the Strasbourg astronomical Data Center.
Tycho2 catalog from the ESO archive.